STARLINK-1208 (45205 NORAD) Tracking and Keplerian Element Data

This shows tracking and keplerian element data for the satellite.

Feedback or suggestion? Click here.




ElementValue
Catalog45205
NameSTARLINK-1208
Epoch Orbit659
Epoch Day88.25001157
Epoch Year2020
RAAN72.235
Inclination52.999
Eccentricity0.0008533
Argument of Perigee305.7622
Mean Anonmoly250.0816
Mean Motion15.62739922
Decay Rate6.9E-07
L11 45205U 20012AD 20088.25001157 .00000069 00000-0 66843-5 0 9997
L22 45205 52.9990 72.2350 0008533 305.7622 250.0816 15.62739922 6593

Live tracking and technical data element details for STARLINK-1208 (NORAD 45205). STARLINK-1208 can be tracked NOW for your location showing map with azimuth and elevation plus other details from your city location.

Track the satellite on the map from your city or location and see movement details for azimuth, elevation, latitude, longitude, range, height, and movement on the map or in text.







IsCatalogInMostPopularTable: catalog: 45205, numindb: 8
Update: records affected: 1



GetName: 45205 STARLINK-1208

Hit Count: updated at: Mon, 30 Mar 2020 22:13:35 GMT